Flag for U.S.A. Weather past 2 weeks in Evansville, Indiana, U.S.A.

Now
32 °F

Overcast.


Feels Like: 26 °F
Forecast: 25 / 40 °F
Wind: 7 mph from Northeast

Location: Evansville Regional Airport

Current Time: Dec 19, 2014 at 8:06:33 AM

Latest Report: Dec 19, 2014 at 6:54 AM


Visibility: 10 mi

Pressure: 30.34 "Hg

Humidity: 73%

Dew point: 24 °F

Location of EvansvilleLocation

Historic Weather in Evansville — Graph

°F

Evansville temperature yesterday

Maximum temperature yesterday: 34 °F (at 1:54 PM)
Minimum temperature yesterday: 30 °F (at 2:54 AM)
Average temperature yesterday: 32 °F

Past Weeks' High & Low Weather Summary

 TemperatureHumidityPressure
High59 °F (Dec 5, 6:54 PM)96% (Dec 4, 10:54 PM)30.58 "Hg (Dec 4, 10:54 PM)
Low23 °F (Dec 12, 4:54 AM)58% (Dec 7, 1:54 PM)29.73 "Hg (Dec 15, 9:54 PM)
Average40 °F79%30.25 "Hg
* Reported Dec 4 6:54 AM — Dec 19 6:54 AM, Evansville, Weather by CustomWeather, © 2014

Note: Actual official high and low records may vary slightly from our data, if they occured in-between our weather recording intervals... More about our weather records

Advertising

Evansville weather history for previous 24 hours

 ConditionsComfort  
Time TempWeatherWind HumidityBarometerVisibility
6:54 AM
Dec 19
32 °FOvercast.7 mph73%30.34 "Hg10 mi
5:54 AM32 °FOvercast.7 mph73%30.29 "Hg10 mi
4:54 AM32 °FOvercast.10 mph73%30.30 "Hg10 mi
3:54 AM32 °FOvercast.6 mph75%30.30 "Hg10 mi
2:54 AM32 °FOvercast.6 mph75%30.30 "Hg9 mi
1:54 AM32 °FMostly cloudy.No wind75%30.29 "Hg7 mi
12:54 AM32 °FOvercast.6 mph75%30.29 "Hg8 mi
11:54 PM
Dec 18
33 °FMostly cloudy.6 mph72%30.29 "Hg7 mi
10:54 PM33 °FOvercast.3 mph72%30.31 "Hg7 mi
9:54 PM33 °FMostly cloudy.3 mph72%30.30 "Hg7 mi
8:54 PM33 °FOvercast.5 mph72%30.29 "Hg8 mi
7:54 PM33 °FOvercast.7 mph75%30.29 "Hg9 mi
6:54 PM34 °FOvercast.3 mph70%30.27 "Hg9 mi
5:54 PM34 °FOvercast.3 mph70%30.26 "Hg10 mi
4:54 PM34 °FMostly cloudy.3 mph70%30.26 "Hg10 mi
3:54 PM34 °FOvercast.3 mph70%30.26 "Hg9 mi
2:54 PM34 °FOvercast.5 mph70%30.25 "Hg9 mi
1:54 PM34 °FOvercast.No wind70%30.25 "Hg9 mi
12:54 PM33 °FOvercast.3 mph72%30.27 "Hg8 mi
11:54 AM33 °FMostly cloudy.No wind72%30.29 "Hg7 mi
11:04 AM32 °FMostly cloudy.No wind75%30.29 "Hg7 mi
10:54 AM33 °FPartly sunny.No wind72%30.31 "Hg7 mi
9:54 AM31 °FOvercast.3 mph79%30.35 "Hg6 mi
8:54 AM31 °FOvercast.7 mph79%30.31 "Hg7 mi
Weather by CustomWeather, © 2014

See weather overviewHow to use our weather pages